Location: Black Swamp Observatory
(41.3920°N, 84.1250°W)
Time: 04:36:59
(UTC-04:00)

Courier 1B Rocket - Pass Details

Date: 19 January 2022
Orbit: 920 x 1202 km, 28.2° (Epoch: 28 May)

Event Time Altitude Azimuth Distance (km) Brightness Sun altitude
Exits shadow 05:58:43 17° 218° (SW) 2,219 6.6 -22.2°
Maximum altitude 06:01:55 25° 179° (S) 1,814 6.5 -21.6°
Drops below altitude 10° 06:06:51 10° 127° (SE) 2,615 8.1 -20.6°
Sets 06:09:53 0° 114° (ESE) 3,547 9.4 -20.1°
